THORAD DELTA 1 DEB, 8595

Orbit data source: Space-Track

THORAD DELTA 1 DEB, 8595 is space debris in SSO originally from a launch on Fri, 15 Nov 1974 UTC launched from the Air Force Western Test Range (AFWTR). Debris objects in space refer to the collection of defunct objects orbiting the Earth. Examples of debris include non-operational satellites, rocket bodies, and fragments generated from explosions, collisions, or faulty payload assembly.

Loading next visibility...
Identifier
8595, 1974-089DJ
Orbit
SSO
Country
Flag of USUS
Related business
Manufacturer
Unknown
Mission
Spacecraft
Bus & Motor
Unknown
Mass
Unknown
Launch date (UTC)
1974-11-15 (51 years ago)
Launch vehicle
Unknown
Launch site
Air Force Western Test Range (AFWTR)
Object type
Payload
Rocket body
Debris
Shape & HBR
Unknown shape, 0.2 m
Radar Cross Section
Small (<0.1 m²)

Expand to show TLE details & history
Last TLE update: 22 hours ago

TLE from 22 hours ago
0 THORAD DELTA 1 DEB
1 08595U 74089DJ  25353.16739802  .00000009  00000-0  41397-3 0  9995
2 08595 101.4349 205.5608 0148363  67.4405  45.4432 12.25461800285363
Epoch: 2025-12-19T04:01Z
TLE epoch observation values (Epoch: 2025-12-19T04:01:03.188Z)
Latitude
63.54847°
Longitude
-98.85156°
Altitude
1,497.771 km
Speed
7.158 km/s
True Right ascension
03h 17m 41s
True Declination
63° 25' 26"
Sunlit
Object was in full shadow at epoch
Visualization orbit readout
Latitude
Unknown
Longitude
Unknown
Altitude
Unknown
Speed
Unknown
Apparent Right ascension
Unknown
Apparent Declination
Unknown
Sunlit
N/A
Visualization observer readout
Local Sidereal Time
01:23:33
Azimuth
Unknown
Elevation
Unknown
Doppler factor
Unknown
Orbital elements
Apogee altitude
1,684.269 km
Perigee altitude
1,448.533 km
Semi-major axis
7,944.538 km
Eccentricity
0.01484
Inclination
101.4349°
RAAN
205.5608°
Arg. of periapsis
67.4405°
True anomaly
46.67049°
Mean anomaly
45.4432°
Eccentric anomaly
46.05525°
Mean motion
3.06507 °/min
Orbital period
117.45 mins
BSTAR
0.00041397
Loading maneuver chart data...
Computing Atmospheric mass density...

Documentation

Showing up to 5 results
|